Location: Ambatotampy
(18.8181°S, 47.6186°E)
Time: 19:00:37
(UTC+00:00)

COSMOS 2428 - Pass Details

Date: 21 January 2021
Orbit: 848 x 855 km, 70.9° (Epoch: 08 March)

Event Time Altitude Azimuth Distance (km) Brightness Sun altitude
Rises 23:59:37 0° 199° (SSW) 3,439 6.1 -31.5°
Reaches altitude 10° 00:02:06 10° 199° (SSW) 2,497 5.3 -31.1°
Enters shadow 00:05:35 39° 203° (SSW) 1,270 3.6 -30.4°
